Tracking 28052 objects as of 22-Sep-2023
HD Live streaming from Space Station
objects crossing your sky now

AMC-7 (GE-7)

Track AMC-7 (GE-7) now!
AMC-7 (GE-7) is classified as:


NORAD ID: 26495
Int'l Code: 2000-054B
Perigee: 36,089.5 km
Apogee: 36,140.2 km
Inclination: 4.3 °
Period: 1,452.5 minutes
Semi major axis: 42485 km
RCS: 22.9975 m2 (large)
Launch date: September 14, 2000
Source: SOCIETE EUROPEENNE DES SATELLITES (SES)
Launch site: FRENCH GUIANA (FRGUI)

Cable programming; 24 C-band; CONUS, Alaska, Hawaii, Caribbean
Your satellite tracking list
Your tracking list is empty




NASA's NSSDC Master Catalog

Two Line Element Set (TLE):
1 26495U 00054B   23264.90535609 -.00000271  00000-0  00000-0 0  9990
2 26495   4.3464  82.0506 0005968  80.1621 320.0541  0.99137255 84060
Source of the keplerian elements: AFSPC